Location: Rocktram
(38.2574°N, 122.2805°W)
Time: 03:17:59
(UTC+00:00)

Cosmos 1980 - Pass Details

Date: 30 March 2020
Orbit: 841 x 846 km, 71.0° (Epoch: 31 May)

Event Time Altitude Azimuth Distance (km) Brightness Sun altitude
Rises 02:56:50 0° 210° (SSW) 3,390 7.1 -6.0°
Reaches altitude 10° 02:59:18 10° 214° (SW) 2,459 6.5 -6.5°
Maximum altitude 03:04:53 62° 295° (WNW) 947 4.3 -7.6°
Drops below altitude 10° 03:10:31 10° 16° (NNE) 2,473 6.1 -8.6°
Sets 03:13:00 0° 20° (NNE) 3,412 6.8 -9.1°
